Frenchville, ME

11:04 AM EDT on July 23, 2017 (GMT -0400)
Northern Aroostook Regional

Weather History for KFVE - November, 2011

Change the Weather History Date:

Thursday, November 10, 2011

  Actual Average Record
Temperature  
Mean Temperature 47 °F 33 °F  
Max Temperature 54 °F 39 °F 54 °F (2011)
Min Temperature 40 °F 27 °F 12 °F (2004)
Degree Days  
Heating Degree Days 18    
Month to date heating degree days 249  
Since 1 July heating degree days 1265  
Cooling Degree Days 0    
Month to date cooling degree days 0  
Year to date cooling degree days 87  
Moisture  
Dew Point 48 °F    
Average Humidity 96    
Maximum Humidity 100    
Minimum Humidity 79    
Precipitation  
Precipitation 0.49 in 0.09 in 0.49 in (2011)
Month to date precipitation 0.63 0.92  
Year to date precipitation 37.93 29.04  
Sea Level Pressure  
Sea Level Pressure 29.82 in    
Wind  
Wind Speed 12 mph (SE)    
Max Wind Speed 18 mph    
Max Gust Speed 24 mph    
Visibility 4 miles    
Events Fog , Rain    
T = Trace of Precipitation, MM = Missing Value Source: NWS Daily Summary

Daily Weather History Graph

Daily Weather History Graph

Search for Another Location

Airport or City:

Trip Planner

Search our weather history database for the weather conditions in past years. The results will help you decide how hot, cold, wet, or windy it might be!

Date:

Astronomy

Nov. 10, 2011 Rise Set
Actual Time 6:29 AM EST 4:04 PM EST
Civil Twilight 5:56 AM EST 4:36 PM EST
Nautical Twilight 5:19 AM EST 5:13 PM EST
Astronomical Twilight 4:44 AM EST 5:49 PM EST
Moon 3:45 PM EST (11/10) 6:21 AM EST (11/10)
Length of Visible Light 10h 40m
Length of Day
9h 34m
Full, 100% of the Moon is Illuminated
Nov 10
Full
Nov 10
Full
Nov 18
Last Quarter
Nov 25
New
Dec 2
First Quarter

Hourly Weather History & Observations

Time (EST) Temp. Windchill Dew Point Humidity Pressure Visibility Wind Dir Wind Speed Gust Speed Precip Events Conditions
12:08 AM 39.2 °F 33.0 °F 35.6 °F 87% 30.04 in 9.0 mi East 9.2 mph - N/A   Overcast
12:53 AM 41.0 °F 34.7 °F 35.1 °F 79% 30.06 in 9.0 mi East 10.4 mph - N/A   Overcast
1:53 AM 42.1 °F 34.9 °F 37.9 °F 85% 30.04 in 8.0 mi ESE 13.8 mph - N/A   Overcast
2:53 AM 43.0 °F 36.4 °F 39.9 °F 89% 30.02 in 7.0 mi SE 12.7 mph - N/A   Overcast
3:13 AM 42.8 °F 36.6 °F 41.0 °F 93% 29.99 in 6.0 mi SE 11.5 mph - N/A   Overcast
3:48 AM 42.8 °F 37.5 °F 42.8 °F 100% 29.99 in 4.0 mi SE 9.2 mph - N/A   Overcast
3:53 AM 44.1 °F 38.1 °F 43.0 °F 96% 30.01 in 3.0 mi SE 11.5 mph - N/A   Overcast
4:12 AM 44.6 °F 39.7 °F 42.8 °F 93% 29.99 in 2.5 mi SSE 9.2 mph - N/A   Overcast
4:53 AM 44.6 °F 39.2 °F 44.6 °F 100% 29.98 in 2.5 mi SSE 10.4 mph - N/A   Overcast
5:46 AM 44.6 °F 38.4 °F 44.6 °F 100% 29.98 in 1.8 mi SSE 12.7 mph - N/A   Overcast
5:53 AM 45.0 °F 39.7 °F 45.0 °F 100% 29.99 in 2.0 mi SSE 10.4 mph - N/A   Overcast
6:31 AM 46.4 °F 41.9 °F 44.6 °F 93% 29.97 in 3.0 mi SE 9.2 mph - N/A   Overcast
6:53 AM 46.0 °F 41.4 °F 45.0 °F 96% 29.99 in 3.0 mi SE 9.2 mph - N/A   Overcast
7:33 AM 46.4 °F 42.4 °F 46.4 °F 100% 29.97 in 2.5 mi SSE 8.1 mph - N/A   Overcast
7:43 AM 46.4 °F 41.5 °F 46.4 °F 100% 29.97 in 3.0 mi SSE 10.4 mph - N/A   Overcast
7:53 AM 46.4 °F 41.5 °F 46.4 °F 100% 29.97 in 4.0 mi SSE 10.4 mph - N/A   Overcast
8:53 AM 48.0 °F - 46.0 °F 93% 29.97 in 6.0 mi SSE 13.8 mph - N/A   Overcast
9:18 AM 48.2 °F - 46.4 °F 93% 29.95 in 6.0 mi SSE 10.4 mph 17.3 mph N/A   Overcast
9:53 AM 50.0 °F - 48.0 °F 93% 29.97 in 7.0 mi South 9.2 mph 18.4 mph N/A   Overcast
10:26 AM 51.8 °F - 48.2 °F 88% 29.94 in 8.0 mi SSE 12.7 mph 19.6 mph N/A   Overcast
10:53 AM 53.1 °F - 48.0 °F 83% 29.94 in 8.0 mi South 12.7 mph 20.7 mph N/A   Overcast
11:53 AM 52.0 °F - 48.9 °F 89% 29.91 in 7.0 mi SSE 12.7 mph - N/A   Overcast
12:34 PM 51.8 °F - 48.2 °F 88% 29.88 in 6.0 mi SSE 11.5 mph - N/A   Overcast
12:53 PM 52.0 °F - 50.0 °F 93% 29.89 in 6.0 mi SSE 11.5 mph - N/A   Overcast
1:53 PM 52.0 °F - 51.1 °F 97% 29.86 in 4.0 mi SSE 11.5 mph - N/A   Overcast
2:24 PM 51.8 °F - 51.8 °F 100% 29.83 in 5.0 mi SE 12.7 mph - N/A   Overcast
2:53 PM 53.6 °F - 51.8 °F 94% 29.83 in 5.0 mi SSE 11.5 mph - N/A   Overcast
3:01 PM 53.6 °F - 51.8 °F 94% 29.83 in 5.0 mi SSE 10.4 mph - N/A   Overcast
3:53 PM 54.0 °F - 51.1 °F 90% 29.83 in 6.0 mi SSE 15.0 mph - N/A   Overcast
4:11 PM 53.6 °F - 51.8 °F 94% 29.81 in 5.0 mi SSE 12.7 mph 21.9 mph N/A   Overcast
4:26 PM 53.6 °F - 51.8 °F 94% 29.81 in 4.0 mi SSE 13.8 mph - 0.00 in Rain Light Rain
4:53 PM 52.0 °F - 52.0 °F 100% 29.81 in 2.5 mi SE 13.8 mph 18.4 mph 0.01 in Rain Light Rain
5:04 PM 51.8 °F - 51.8 °F 100% 29.79 in 2.0 mi SE 10.4 mph - 0.00 in Rain Light Rain
5:25 PM 51.8 °F - 51.8 °F 100% 29.79 in 4.0 mi SE 13.8 mph - 0.00 in   Overcast
5:53 PM 51.1 °F - 51.1 °F 100% 29.78 in 2.0 mi SE 15.0 mph - 0.00 in Rain Light Rain
6:08 PM 51.8 °F - 51.8 °F 100% 29.76 in 3.0 mi SE 17.3 mph 24.2 mph 0.01 in Rain Light Rain
6:53 PM 51.1 °F - 51.1 °F 100% 29.75 in 5.0 mi SSE 11.5 mph - 0.01 in Rain Light Rain
7:53 PM 51.1 °F - 51.1 °F 100% 29.72 in 2.0 mi SSE 13.8 mph - 0.03 in Rain Rain
7:55 PM 51.8 °F - 51.8 °F 100% 29.71 in 1.2 mi SSE 10.4 mph - 0.00 in Rain Light Rain
8:04 PM 51.8 °F - 51.8 °F 100% 29.71 in 0.5 mi SSE 12.7 mph 20.7 mph 0.01 in Fog , Rain Light Rain
8:37 PM 51.8 °F - 51.8 °F 100% 29.68 in 1.5 mi SE 13.8 mph - 0.05 in Rain Light Rain
8:40 PM 50.0 °F - 50.0 °F 100% 29.68 in 3.0 mi SSE 12.7 mph - 0.05 in Rain Light Rain
8:53 PM 50.0 °F - 50.0 °F 100% 29.68 in 7.0 mi SE 12.7 mph 21.9 mph 0.05 in Rain Light Rain
9:35 PM 50.0 °F - 50.0 °F 100% 29.64 in 1.8 mi SE 15.0 mph - 0.09 in Rain Heavy Rain
9:51 PM 50.0 °F - 50.0 °F 100% 29.63 in 2.5 mi SSE 13.8 mph 20.7 mph N/A Rain Rain
9:53 PM 50.0 °F - 50.0 °F 100% 29.63 in 2.5 mi SE 13.8 mph 20.7 mph 0.14 in Rain Rain
10:03 PM 50.0 °F - 50.0 °F 100% 29.62 in 3.0 mi SE 18.4 mph 24.2 mph 0.01 in Rain Rain
10:53 PM 51.1 °F - 51.1 °F 100% 29.58 in 2.5 mi SE 11.5 mph - 0.07 in Rain Heavy Rain
11:09 PM 51.8 °F - 51.8 °F 100% 29.57 in 3.0 mi ESE 6.9 mph - 0.03 in Rain Rain
11:12 PM 51.8 °F - 51.8 °F 100% 29.56 in 1.8 mi East 4.6 mph - 0.04 in Rain Heavy Rain
11:15 PM 50.0 °F - 50.0 °F 100% 29.56 in 0.8 mi East 5.8 mph - 0.06 in Rain Heavy Rain
11:32 PM 50.0 °F - 50.0 °F 100% 29.54 in 1.0 mi East 6.9 mph - 0.15 in Rain Heavy Rain
11:41 PM 50.0 °F - 50.0 °F 100% 29.54 in 1.8 mi East 5.8 mph - 0.17 in Rain Rain
11:48 PM 50.0 °F - 50.0 °F 100% 29.53 in 3.0 mi East 6.9 mph - 0.17 in Rain Light Rain
11:49 PM 50.0 °F - 50.0 °F 100% 29.53 in 3.0 mi East 8.1 mph - 0.17 in Rain Light Rain